GW1163 Weather Reports


time (UTC)temp
F
wind
direction
speed
knots
gust
knots
rain 1hr
in
rain 24hr
in
rain mn
in
humidity
%
barometer
mb
20260506165036 81 243 0.9 7.8 0.00 0.00 0.00 64 1017.0
20260506164546 80 143 1.7 7.8 0.00 0.00 0.00 69 1016.8
20260506164040 81 213 0.9 7.0 0.00 0.00 0.00 67 1016.9
20260506163535 81 182 1.7 6.1 0.00 0.00 0.00 68 1017.0
20260506163056 81 129 1.7 5.2 0.00 0.00 0.00 66 1016.9
20260506162538 81 142 1.7 5.2 0.00 0.00 0.00 65 1016.8
20260506162038 80 171 1.7 5.2 0.00 0.00 0.00 69 1017.0
20260506161549 80 169 1.7 6.1 0.00 0.00 0.00 66 1017.0
20260506161040 79 80 1.7 6.1 0.00 0.00 0.00 68 1017.1
20260506160536 79 204 0.9 7.8 0.00 0.00 0.00 68 1017.2
20260506160053 79 90 0.9 8.7 0.00 0.00 0.00 68 1017.2
20260506155542 79 0 1.7 8.7 0.00 0.00 0.00 68 1017.2
20260506155041 78 234 2.6 5.2 0.00 0.00 0.00 67 1017.2
20260506154608 79 0 0.9 4.3 0.00 0.00 0.00 68 1017.2
20260506154040 79 190 0.9 4.3 0.00 0.00 0.00 67 1017.2
20260506153540 79 0 0.9 4.3 0.00 0.00 0.00 69 1017.3
20260506153046 78 160 1.7 4.3 0.00 0.00 0.00 66 1017.2
20260506152536 79 0 0.9 6.1 0.00 0.00 0.00 69 1017.2
20260506152035 78 171 0.9 6.1 0.00 0.00 0.00 66 1017.1
20260506151547 79 171 1.7 4.3 0.00 0.00 0.00 65 1017.2
20260506151036 79 187 0.9 5.2 0.00 0.00 0.00 66 1017.1
20260506150536 79 201 0.9 5.2 0.00 0.00 0.00 67 1017.2
20260506150050 79 165 1.7 5.2 0.00 0.00 0.00 64 1017.1
20260506145536 79 156 0.9 5.2 0.00 0.00 0.00 63 1017.1
20260506145035 79 175 0.9 5.2 0.00 0.00 0.00 65 1017.1
20260506144556 79 0 0.9 6.1 0.00 0.00 0.00 64 1017.0
20260506144035 79 259 0.9 6.1 0.00 0.00 0.00 63 1016.8
20260506143536 78 220 0.9 5.2 0.00 0.00 0.00 63 1016.8
20260506143053 78 202 1.7 5.2 0.00 0.00 0.00 61 1016.7
20260506142540 78 136 0.9 7.8 0.00 0.00 0.00 60 1016.7
20260506142039 78 227 0.9 7.8 0.00 0.00 0.00 64 1016.7
20260506141548 77 217 1.7 6.1 0.00 0.00 0.00 63 1016.8
20260506141038 77 167 1.7 5.2 0.00 0.00 0.00 65 1017.0
20260506140540 77 257 1.7 6.1 0.00 0.00 0.00 65 1016.9
20260506140047 77 266 0.9 6.1 0.00 0.00 0.00 63 1016.8
20260506135538 77 217 0.9 6.1 0.00 0.00 0.00 64 1016.8
20260506135036 77 0 0.9 7.8 0.00 0.00 0.00 66 1016.8
20260506134551 76 188 1.7 7.8 0.00 0.00 0.00 67 1016.6
20260506134036 76 265 0.9 5.2 0.00 0.00 0.00 67 1016.6
20260506133535 76 233 0.9 5.2 0.00 0.00 0.00 68 1016.7
20260506133102 75 186 1.7 6.1 0.00 0.00 0.00 68 1016.6
20260506132539 75 105 0.9 6.1 0.00 0.00 0.00 68 1016.6
20260506132037 75 182 0.9 5.2 0.00 0.00 0.00 70 1016.6
20260506131548 75 227 0.9 3.5 0.00 0.00 0.00 70 1016.7
20260506131037 74 133 0.9 8.7 0.00 0.00 0.00 73 1016.5
20260506130539 73 151 0.9 8.7 0.00 0.00 0.00 73 1016.5
20260506130119 73 184 1.7 5.2 0.00 0.00 0.00 74 1016.5
20260506125538 72 176 1.7 4.3 0.00 0.00 0.00 75 1016.4
20260506125038 72 198 0.9 4.3 0.00 0.00 0.00 76 1016.3
20260506124546 72 180 0.9 7.0 0.00 0.00 0.00 77 1016.3
20260506124036 71 215 1.7 7.0 0.00 0.00 0.00 77 1016.4
20260506123536 71 223 0.9 5.2 0.00 0.00 0.00 78 1016.3
20260506123050 71 163 0.9 4.3 0.00 0.00 0.00 79 1016.2
20260506122536 70 139 0.0 4.3 0.00 0.00 0.00 80 1016.3
20260506122036 70 0 0.9 4.3 0.00 0.00 0.00 81 1016.4
20260506121550 70 0 0.0 2.6 0.00 0.00 0.00 81 1016.5
20260506121036 69 202 0.0 2.6 0.00 0.00 0.00 82 1016.4
20260506120536 68 198 0.9 2.6 0.00 0.00 0.00 84 1016.5
20260506120052 68 0 0.0 1.7 0.00 0.00 0.00 86 1016.4
20260506115536 67 0 0.0 1.7 0.00 0.00 0.00 87 1016.4
20260506115040 66 0 0.0 0.0 0.00 0.00 0.00 87 1016.4
20260506114549 65 0 0.0 0.0 0.00 0.00 0.00 88 1016.2
20260506114039 64 0 0.0 0.0 0.00 0.00 0.00 89 1016.1
20260506113536 63 0 0.0 0.0 0.00 0.00 0.00 89 1016.1
20260506113046 62 0 0.0 0.0 0.00 0.00 0.00 89 1016.2
20260506112537 62 0 0.0 0.0 0.00 0.00 0.00 89 1016.0
20260506112038 61 0 0.0 0.0 0.00 0.00 0.00 90 1015.9
20260506111546 61 0 0.0 0.0 0.00 0.00 0.00 90 1015.9
20260506111036 60 0 0.0 0.0 0.00 0.00 0.00 90 1016.0
20260506110536 60 0 0.0 0.0 0.00 0.00 0.00 90 1016.1
20260506110050 60 0 0.0 0.0 0.00 0.00 0.00 90 1016.0
20260506105536 60 0 0.0 0.0 0.00 0.00 0.00 90 1016.0
20260506105040 60 0 0.0 0.0 0.00 0.00 0.00 90 1016.0
20260506104610 60 0 0.0 0.0 0.00 0.00 0.00 90 1016.1
20260506104035 59 0 0.0 0.0 0.00 0.00 0.00 89 1016.0
20260506103540 59 0 0.0 0.0 0.00 0.00 0.00 89 1015.8
20260506103046 59 0 0.0 0.0 0.00 0.00 0.00 90 1015.8
20260506102537 60 0 0.0 0.0 0.00 0.00 0.00 90 1015.7
20260506102039 59 0 0.0 0.0 0.00 0.00 0.00 90 1015.9
20260506101549 59 0 0.0 0.0 0.00 0.00 0.00 89 1015.8
20260506101036 60 0 0.0 0.0 0.00 0.00 0.00 89 1015.7
20260506100538 59 0 0.0 0.0 0.00 0.00 0.00 89 1015.9
20260506100050 59 0 0.0 0.0 0.00 0.00 0.00 89 1015.8
20260506095536 60 0 0.0 0.0 0.00 0.00 0.00 89 1015.7
20260506095035 60 0 0.0 0.0 0.00 0.00 0.00 89 1015.7
20260506094549 60 0 0.0 0.0 0.00 0.00 0.00 89 1015.7
20260506094035 60 0 0.0 0.0 0.00 0.00 0.00 89 1015.8
20260506093537 60 0 0.0 0.0 0.00 0.00 0.00 89 1015.7
20260506093051 60 0 0.0 0.0 0.00 0.00 0.00 89 1015.9
20260506092536 60 0 0.0 0.0 0.00 0.00 0.00 89 1015.8
20260506092036 60 0 0.0 0.0 0.00 0.00 0.00 89 1015.9
20260506091548 60 0 0.0 0.0 0.00 0.00 0.00 89 1015.8
20260506091038 60 0 0.0 0.0 0.00 0.00 0.00 89 1015.9
20260506090539 60 0 0.0 0.0 0.00 0.00 0.00 89 1015.9
20260506090048 60 0 0.0 0.0 0.00 0.00 0.00 89 1016.0
20260506085538 60 0 0.0 0.0 0.00 0.00 0.00 89 1015.9
20260506085036 60 0 0.0 0.0 0.00 0.00 0.00 89 1015.9
20260506084547 60 0 0.0 0.0 0.00 0.00 0.00 89 1016.0
20260506084035 60 0 0.0 0.0 0.00 0.00 0.00 88 1016.1
20260506083539 60 0 0.0 0.0 0.00 0.00 0.00 88 1016.2
20260506083050 60 0 0.0 0.0 0.00 0.00 0.00 88 1016.0
20260506082536 60 0 0.0 0.0 0.00 0.00 0.00 88 1016.1
20260506082036 60 0 0.0 0.0 0.00 0.00 0.00 88 1016.0
20260506081545 60 0 0.0 0.0 0.00 0.00 0.00 88 1016.1
20260506081039 60 0 0.0 0.0 0.00 0.00 0.00 88 1016.0
20260506080538 60 0 0.0 0.0 0.00 0.00 0.00 88 1015.9
20260506073051 60 0 0.0 0.0 0.00 0.00 0.00 88 1015.6
20260506072536 60 0 0.0 0.0 0.00 0.00 0.00 88 1015.6
20260506072040 60 0 0.0 0.0 0.00 0.00 0.00 88 1015.6
20260506071554 60 0 0.0 0.0 0.00 0.00 0.00 88 1015.5
20260506071036 60 0 0.0 0.0 0.00 0.00 0.00 88 1015.5
20260506070537 60 0 0.0 0.0 0.00 0.00 0.00 88 1015.5
20260506062036 60 0 0.0 0.0 0.00 0.00 0.00 87 1016.0
20260506061551 60 0 0.0 0.0 0.00 0.00 0.00 87 1015.8
20260506061039 60 0 0.0 0.0 0.00 0.00 0.00 87 1015.9
20260506060541 60 0 0.0 0.0 0.00 0.00 0.00 87 1015.9
20260506051036 60 0 0.0 0.0 0.00 0.00 0.00 85 1016.5
20260506050539 60 0 0.0 0.0 0.00 0.00 0.00 85 1016.5
20260506045036 61 0 0.0 0.0 0.00 0.00 0.00 84 1016.5
20260506044600 61 0 0.0 0.0 0.00 0.00 0.00 84 1016.6
20260506044036 61 0 0.0 0.0 0.00 0.00 0.00 84 1016.7
20260506043536 61 0 0.0 0.0 0.00 0.00 0.00 84 1016.8
20260506043053 61 0 0.0 0.0 0.00 0.00 0.00 83 1016.8
20260506042536 62 0 0.0 0.0 0.00 0.00 0.00 83 1016.7
20260506042037 62 0 0.0 0.0 0.00 0.00 0.00 82 1016.9
20260506041545 62 0 0.0 0.0 0.00 0.00 0.00 82 1016.8
20260506041035 62 0 0.0 0.0 0.00 0.00 0.00 82 1016.8
20260506040539 63 0 0.0 0.0 0.00 0.00 0.00 81 1016.6
20260506040050 63 0 0.0 0.0 0.00 0.00 0.00 81 1016.9
20260506035536 63 0 0.0 0.0 0.00 0.00 0.00 80 1016.8
20260506035036 63 0 0.0 0.0 0.00 0.00 0.00 79 1016.8
20260506034547 64 0 0.0 0.0 0.00 0.00 0.00 78 1016.8
20260506034037 64 0 0.0 0.0 0.00 0.00 0.00 77 1016.7
20260506033536 65 0 0.0 1.7 0.00 0.00 0.00 77 1016.7
20260506033047 65 0 0.0 1.7 0.00 0.00 0.00 77 1016.7
20260506032536 64 136 0.0 0.0 0.00 0.00 0.00 77 1016.7
20260506032037 64 0 0.0 0.9 0.00 0.00 0.00 76 1016.7
20260506031552 65 0 0.0 0.9 0.00 0.00 0.00 76 1016.8
20260506031038 65 0 0.0 0.9 0.00 0.00 0.00 75 1016.7
20260506030537 65 0 0.0 0.9 0.00 0.00 0.00 75 1016.7
20260506030048 65 0 0.0 0.0 0.00 0.00 0.00 74 1016.8
20260506025535 65 0 0.0 0.9 0.00 0.00 0.00 74 1016.9
20260506025036 65 0 0.0 1.7 0.00 0.00 0.00 74 1016.9
20260506024555 65 0 0.0 1.7 0.00 0.00 0.00 74 1017.0
20260506024036 65 0 0.0 1.7 0.00 0.00 0.00 74 1017.0
20260506023537 65 0 0.0 0.0 0.00 0.00 0.00 74 1017.1
20260506023048 64 0 0.0 0.0 0.00 0.00 0.00 75 1017.1
20260506022536 64 0 0.0 0.0 0.00 0.00 0.00 75 1017.2
20260506022036 64 0 0.0 0.0 0.00 0.00 0.00 76 1017.2
20260506021554 64 0 0.0 0.0 0.00 0.00 0.00 76 1017.2
20260506021036 64 0 0.0 0.0 0.00 0.00 0.00 76 1017.2
20260506020535 65 0 0.0 0.0 0.00 0.00 0.00 75 1017.1
20260506020047 65 0 0.0 0.9 0.00 0.00 0.00 73 1017.2
20260506015536 66 0 0.0 0.9 0.00 0.00 0.00 73 1017.1
20260506015037 66 0 0.0 1.7 0.00 0.00 0.00 72 1016.8
20260506014547 66 0 0.0 1.7 0.00 0.00 0.00 72 1017.0
20260506014039 66 178 0.9 3.5 0.00 0.00 0.00 72 1016.7
20260506013536 66 134 0.0 3.5 0.00 0.00 0.00 72 1016.6
20260506013048 66 0 0.0 1.7 0.00 0.00 0.00 72 1016.8
20260506012539 66 0 0.0 1.7 0.00 0.00 0.00 72 1016.9
20260506012036 66 175 0.0 1.7 0.00 0.00 0.00 72 1016.6
20260506011549 66 0 0.0 1.7 0.00 0.00 0.00 71 1016.7
20260506011040 66 194 0.0 1.7 0.00 0.00 0.00 72 1016.8
20260506010536 66 0 0.0 1.7 0.00 0.00 0.00 72 1017.1
20260506010055 67 0 0.0 2.6 0.00 0.00 0.00 72 1016.9
20260506005536 67 0 0.0 2.6 0.00 0.00 0.00 73 1016.7
20260506005039 67 0 0.0 1.7 0.00 0.00 0.00 73 1016.5
20260506004547 67 134 0.0 2.6 0.00 0.00 0.00 72 1016.5
20260506004036 67 0 0.0 2.6 0.00 0.00 0.00 72 1016.5
20260506003538 68 187 0.0 2.6 0.00 0.00 0.00 71 1016.7
20260506003046 68 192 0.9 2.6 0.00 0.00 0.00 71 1016.6
20260506002536 68 0 0.0 3.5 0.00 0.00 0.00 71 1016.7
20260506002036 68 0 0.9 3.5 0.00 0.00 0.00 70 1016.7
20260506001546 68 156 0.0 3.5 0.00 0.00 0.00 70 1016.8
20260506001036 68 0 0.0 3.5 0.00 0.00 0.00 69 1017.0
20260506000536 69 151 0.9 4.3 0.00 0.00 0.00 68 1016.7
20260506000046 69 152 0.0 4.3 0.00 0.00 0.00 68 1016.7
20260505235536 69 159 0.9 3.5 0.00 0.00 0.00 68 1016.8
20260505235036 69 153 0.0 4.3 0.00 0.00 0.00 67 1016.8
20260505234607 70 0 0.9 4.3 0.00 0.00 0.00 67 1016.7
20260505234037 70 156 0.9 4.3 0.00 0.00 0.00 66 1016.6
20260505233537 70 161 0.9 6.1 0.00 0.00 0.00 64 1016.5
20260505233049 70 167 1.7 6.1 0.00 0.00 0.00 63 1016.5
20260505232540 70 202 1.7 6.1 0.00 0.00 0.00 62 1016.5
20260505232036 71 163 1.7 6.1 0.00 0.00 0.00 62 1016.4
20260505231547 71 178 1.7 6.1 0.00 0.00 0.00 61 1016.4
20260505231042 71 179 0.9 5.2 0.00 0.00 0.00 61 1016.6
20260505230539 71 0 0.9 7.0 0.00 0.00 0.00 61 1016.7
20260505230049 72 147 1.7 7.0 0.00 0.00 0.00 60 1016.7
20260505225539 72 0 0.9 5.2 0.00 0.00 0.00 61 1016.7
20260505225036 72 193 0.9 5.2 0.00 0.00 0.00 63 1016.6
20260505224552 73 127 0.9 4.3 0.00 0.00 0.00 62 1016.6
20260505224039 73 148 1.7 5.2 0.00 0.00 0.00 60 1016.6
20260505223539 73 134 1.7 6.1 0.00 0.00 0.00 59 1016.8
20260505223104 74 130 0.9 6.1 0.00 0.00 0.00 60 1016.7
20260505222536 73 154 0.9 4.3 0.00 0.00 0.00 60 1016.7
20260505222036 74 178 0.9 4.3 0.00 0.00 0.00 59 1016.8
20260505221550 73 145 1.7 4.3 0.00 0.00 0.00 62 1016.8
20260505221035 73 145 0.0 10.4 0.00 0.00 0.00 63 1016.8
20260505220536 73 81 1.7 10.4 0.00 0.00 0.00 61 1016.8
20260505220048 73 130 0.9 6.1 0.00 0.00 0.00 61 1016.8
20260505215537 73 198 1.7 5.2 0.00 0.00 0.00 61 1016.9
20260505215037 73 110 1.7 7.8 0.00 0.00 0.00 61 1016.9
20260505214559 73 134 1.7 7.8 0.00 0.00 0.00 61 1016.9
20260505214037 73 165 1.7 7.8 0.00 0.00 0.00 62 1016.9
20260505213537 73 133 0.9 4.3 0.00 0.00 0.00 64 1017.0
20260505213054 73 107 0.9 4.3 0.00 0.00 0.00 64 1017.2
20260505212536 73 202 1.7 7.8 0.00 0.00 0.00 62 1017.1
20260505212038 74 165 0.9 7.8 0.00 0.00 0.00 63 1017.1
20260505211556 75 161 1.7 4.3 0.00 0.00 0.00 59 1017.1
20260505211037 76 110 0.9 4.3 0.00 0.00 0.00 62 1017.0
20260505210536 76 197 1.7 4.3 0.00 0.00 0.00 60 1016.8
20260505210048 76 197 1.7 5.2 0.00 0.00 0.00 59 1016.8
20260505205536 76 150 1.7 6.1 0.00 0.00 0.00 59 1016.7
20260505205036 76 54 1.7 6.1 0.00 0.00 0.00 60 1016.8
20260505204545 75 173 1.7 7.0 0.00 0.00 0.00 59 1016.8
20260505204036 76 167 1.7 7.0 0.00 0.00 0.00 59 1016.9
20260505203536 76 162 1.7 7.0 0.00 0.00 0.00 58 1016.9
20260505203113 76 232 1.7 7.8 0.00 0.00 0.00 59 1016.9
20260505202539 76 186 1.7 10.4 0.00 0.00 0.00 59 1017.0
20260505202039 76 159 1.7 10.4 0.00 0.00 0.00 58 1017.1
20260505201552 75 163 0.9 7.8 0.00 0.00 0.00 59 1017.0
20260505201039 76 209 1.7 7.0 0.00 0.00 0.00 58 1017.1
20260505200537 76 355 2.6 7.0 0.00 0.00 0.00 56 1017.2
20260505200048 76 94 1.7 7.8 0.00 0.00 0.00 58 1017.2
20260505195539 76 197 1.7 7.8 0.00 0.00 0.00 58 1017.2
20260505195035 76 101 1.7 7.0 0.00 0.00 0.00 59 1017.4
20260505194548 76 159 1.7 7.0 0.00 0.00 0.00 57 1017.5
20260505194037 75 214 2.6 8.7 0.00 0.00 0.00 57 1017.6
20260505193540 75 100 1.7 8.7 0.00 0.00 0.00 58 1017.7
20260505193047 76 143 0.9 7.0 0.00 0.00 0.00 56 1017.9
20260505192540 76 234 1.7 7.0 0.00 0.00 0.00 58 1017.9
20260505192036 77 165 1.7 5.2 0.00 0.00 0.00 57 1018.0
20260505191551 77 176 1.7 5.2 0.00 0.00 0.00 55 1018.0
20260505191036 77 148 1.7 7.8 0.00 0.00 0.00 56 1018.0
20260505190536 76 180 1.7 8.7 0.00 0.00 0.00 58 1018.0
20260505190051 75 77 3.5 8.7 0.00 0.00 0.00 58 1018.0
20260505185539 76 162 3.5 7.8 0.00 0.00 0.00 55 1018.0
20260505185037 77 146 1.7 7.0 0.00 0.00 0.00 55 1018.0
20260505184551 77 151 2.6 7.0 0.00 0.00 0.00 54 1018.2
20260505184040 77 147 1.7 6.1 0.00 0.00 0.00 55 1018.1
20260505183537 77 173 1.7 8.7 0.00 0.00 0.00 54 1018.1
20260505183052 76 98 1.7 8.7 0.00 0.00 0.00 56 1017.9
20260505182540 76 175 1.7 7.8 0.00 0.00 0.00 56 1017.8
20260505182036 76 142 1.7 7.8 0.00 0.00 0.00 55 1017.8
20260505181547 76 116 1.7 8.7 0.00 0.00 0.00 52 1017.8
20260505181044 75 225 3.5 8.7 0.00 0.00 0.00 55 1018.0
20260505180539 76 203 1.7 7.0 0.00 0.00 0.00 56 1018.1
20260505180056 76 196 2.6 6.1 0.00 0.00 0.00 55 1018.0
20260505175540 76 160 1.7 6.1 0.00 0.00 0.00 57 1017.9
20260505175036 77 169 1.7 6.1 0.00 0.00 0.00 57 1018.1
20260505174548 77 166 1.7 6.1 0.00 0.00 0.00 57 1018.0
20260505174037 76 153 1.7 8.7 0.00 0.00 0.00 57 1017.8
20260505173537 76 66 1.7 8.7 0.00 0.00 0.00 61 1017.8
20260505173049 76 109 1.7 7.8 0.00 0.00 0.00 55 1018.0
20260505172536 76 195 1.7 7.8 0.00 0.00 0.00 56 1018.1
20260505172036 76 212 2.6 7.8 0.00 0.00 0.00 59 1018.4
20260505171546 76 148 1.7 7.0 0.00 0.00 0.00 58 1018.5
20260505171036 76 0 2.6 7.8 0.00 0.00 0.00 57 1018.4
20260505170537 76 122 1.7 7.8 0.00 0.00 0.00 58 1018.5
20260505170048 76 109 1.7 7.0 0.00 0.00 0.00 60 1018.4
20260505165538 75 153 2.6 6.1 0.00 0.00 0.00 59 1018.6